Regional Weather Roundup
Issued by NWS

Home | Current Version | Previous Version | Text Only | Print | Product List | Glossary Off
Versions: 1 2 3 4 5 6 7 8 9 10 11 12 13 14 15 16 17 18 19 20 21 22 23 24 25 26 27 28 29 30 31 32 33 34 35 36 37 38 39 40 41 42 43 44 45 46 47 48 49 50

552
ASUS44 KLIX 261805
RWRLA
LOUISIANA WEATHER ROUNDUP
NATIONAL WEATHER SERVICE NEW ORLEANS LA
1200 PM CST MON JAN 26 2015

NOTE: "FAIR" INDICATES FEW OR NO CLOUDS BELOW 12,000 FEET WITH NO
      SIGNIFICANT WEATHER AND/OR OBSTRUCTIONS TO VISIBILITY.
      SKY/WX - SKY CONDITION AND SIGNIFICANT WEATHER.
      TMP - AIR TEMPERATURE.    DP   - DEWPOINT TEMPERATURE.
      RH  - RELATIVE HUMIDITY.  PRES - PRESSURE.
      HX  - HEAT INDEX.         WCI  - WIND CHILL INDEX.

*  THESE STATIONS ARE NOT NWS OR FAA STATIONS AND ARE NOT UNDER
   NWS QUALITY CONTROL.

LAZ040-048-061>063-065-066-069-261900-
SOUTHEAST LOUISIANA

CITY           SKY/WX    TMP DP  RH WIND       PRES   REMARKS
N.O. AUDUBON     N/A     59  39  47 MISG        N/A
6HR MIN TEMP:  47; 6HR MAX TEMP:  59;

N.O. INTL ARPT MOSUNNY   57  37  47 NW13      30.11F
6HR MIN TEMP:  48; 6HR MAX TEMP:  57;

N.O. LAKEFRONT SUNNY     56  39  53 NW14      30.11F
6HR MIN TEMP:  51; 6HR MAX TEMP:  56;

N.O. DOWNTOWN* FAIR      55  36  47 N9        30.11F
6HR MIN TEMP:  50; 6HR MAX TEMP:  55;

SLIDELL        SUNNY     61  35  37 NW12G17   30.09F
BATON ROUGE    SUNNY     57  33  40 NW12      30.13F
6HR MIN TEMP:  45; 6HR MAX TEMP:  57;

BOOTHVILLE     SUNNY     54  39  57 NW14      30.11F
6HR MIN TEMP:  48; 6HR MAX TEMP:  54;

BELLE CHASSE   MOSUNNY   56  34  43 NW9G20    30.10F
6HR MIN TEMP:  49; 6HR MAX TEMP:  57;

BOGALUSA*        N/A     58  37  45 NW12G20   30.12F
6HR MIN TEMP:  43; 6HR MAX TEMP:  58;

GALLIANO*      CLEAR     60  38  43 MISG      30.12F
6HR MIN TEMP:  42; 6HR MAX TEMP:  60;

NEW ROADS*     FAIR      55  36  49 NW9       30.15F
6HR MIN TEMP:  43; 6HR MAX TEMP:  55;

GONZALES*      FAIR      57  35  44 NW14G21   30.11F
6HR MIN TEMP:  43; 6HR MAX TEMP:  57;

HAMMOND*       SUNNY     59  34  38 NW14      30.12F
HOUMA*         SUNNY     59  36  41 NW10      30.12F
PORT FOURCHON* CLEAR     55  37  50 NW13      30.16F

$$

LAZ041-044-053-054-261900-
SOUTHWEST LOUISIANA

CITY           SKY/WX    TMP DP  RH WIND       PRES   REMARKS
LAKE CHARLES   SUNNY     60  34  37 N13G20    30.18F
6HR MIN TEMP:  47; 6HR MAX TEMP:  60;

LAFAYETTE      SUNNY     58  36  43 NW10      30.16F
6HR MIN TEMP:  44; 6HR MAX TEMP:  58;

PATTERSON      SUNNY     57  34  41 NW10      30.15F
6HR MIN TEMP:  48; 6HR MAX TEMP:  57;

SALT POINT       N/A     55  40  56 W10       30.14F
6HR MIN TEMP:  46; 6HR MAX TEMP:  56;

NEW IBERIA     SUNNY     57  36  45 NW10      30.16F
6HR MIN TEMP:  44; 6HR MAX TEMP:  58; 6HR PCP: TRACE;

CHENAULT AIRPK SUNNY     57  34  41 N16       30.19

$$

LAZ027-028-261900-
CENTRAL LOUISIANA

CITY           SKY/WX    TMP DP  RH WIND       PRES   REMARKS
FORT POLK      SUNNY     57  33  40 NW10      30.16F
6HR MIN TEMP:  40; 6HR MAX TEMP:  57;

ALEXANDRIA INT SUNNY     54  36  50 VRB5      30.17F
6HR MIN TEMP:  38; 6HR MAX TEMP:  55;

ALEXANDRIA     SUNNY     57  34  41 VRB7      30.16F
6HR MIN TEMP:  39; 6HR MAX TEMP:  57;


$$

LAZ001-002-261900-
NORTHWEST LOUISIANA

CITY           SKY/WX    TMP DP  RH WIND       PRES   REMARKS
SHREVEPORT     SUNNY     56  33  42 N6        30.17F
6HR MIN TEMP:  37; 6HR MAX TEMP:  57;

BARKSDALE AFB  SUNNY     54  33  46 N8        30.18F
6HR MIN TEMP:  37; 6HR MAX TEMP:  54;

DTN SHREVEPORT SUNNY     53  32  44 VRB6      30.18F
6HR MIN TEMP:  39; 6HR MAX TEMP:  53;


$$

LAZ014-016-261900-
NORTHEAST LOUISIANA

CITY           SKY/WX    TMP DP  RH WIND       PRES   REMARKS
MONROE         SUNNY     52  35  52 NW5       30.18F
6HR MIN TEMP:  39; 6HR MAX TEMP:  52;

TALLULAH       SUNNY     50  35  56 NW8       30.17F
6HR MIN TEMP:  44; 6HR MAX TEMP:  50;


$$




USA.gov is the U.S. government's official web portal to all federal, state and local government web resources and services.